FW7769 Weather Reports


time (UTC)temp
F
wind
direction
speed
knots
gust
knots
rain 1hr
in
rain 24hr
in
rain mn
in
humidity
%
barometer
mb
20260508100056 59 0 0.0 0.0 0.01 1.24 0.01 92 1013.5
20260508094548 58 0 0.0 0.0 0.01 1.24 0.01 90 1013.1
20260508093039 58 0 0.0 0.0 0.00 1.23 0.00 90 1013.3
20260508091604 58 0 0.0 5.2 0.00 1.23 0.00 90 1013.6
20260508090047 57 0 0.0 5.2 0.00 1.22 0.00 90 1013.5
20260508084547 57 0 0.0 0.0 0.00 1.22 0.00 92 1013.1
20260508083039 57 0 0.0 2.6 0.00 1.22 0.00 91 1012.9
20260508081607 57 0 0.0 0.0 0.00 1.22 0.00 91 1013.1
20260508080048 57 0 0.0 0.0 0.00 1.22 0.00 91 1012.8
20260508074551 57 0 0.0 0.0 0.00 1.22 0.00 92 1012.4
20260508073046 56 0 0.0 0.0 0.00 1.22 0.00 92 1012.1
20260508071548 56 0 0.0 0.0 0.00 1.22 0.00 93 1012.2
20260508070050 56 0 0.0 0.0 0.00 1.22 0.00 93 1012.1
20260508064548 55 0 0.0 0.0 0.00 1.22 0.00 94 1011.9
20260508063057 55 0 0.0 0.0 0.00 1.22 0.00 94 1012.1
20260508061546 54 0 0.0 0.0 0.00 1.22 0.00 94 1012.0
20260508060106 54 0 0.0 0.0 0.00 1.22 0.00 94 1011.6
20260508054633 54 0 0.0 0.0 0.00 1.22 0.00 95 1011.3
20260508053052 54 0 0.0 0.0 0.00 1.22 0.00 95 1011.2
20260508051549 53 0 0.0 0.0 0.00 1.22 0.00 96 1011.4
20260508050050 53 0 0.0 0.0 0.00 1.22 0.00 96 1011.0
20260508044547 53 0 0.0 0.9 0.00 1.22 0.00 97 1011.2
20260508043056 53 0 0.0 0.9 0.00 1.22 0.00 97 1010.9
20260508041545 53 0 0.0 0.0 0.00 1.22 0.00 97 1010.9
20260508040045 53 0 0.0 0.0 0.00 1.22 0.00 97 1010.8
20260508034549 53 0 0.0 0.0 0.00 1.22 0.00 97 1010.5
20260508033040 53 0 0.0 0.0 0.00 1.22 0.00 97 1010.6
20260508031539 53 0 0.0 0.0 0.00 1.22 0.00 97 1010.8
20260508030040 53 0 0.0 0.9 0.00 1.22 0.00 97 1011.2
20260508024554 54 0 0.0 0.9 0.00 1.22 0.00 97 1011.2
20260508023041 54 0 0.0 0.0 0.00 1.22 0.00 97 1011.2
20260508021540 54 0 0.0 0.0 0.00 1.22 0.00 97 1011.2
20260508020038 54 0 0.0 0.0 0.00 1.22 0.00 97 1011.2
20260508014540 54 0 0.0 0.0 0.00 1.22 0.00 97 1011.3
20260508013042 54 0 0.0 0.0 0.00 1.22 0.00 97 1011.4
20260508011542 54 0 0.0 0.0 0.00 1.22 0.00 97 1011.6
20260508010048 54 0 0.0 0.0 0.00 1.22 0.00 97 1011.7
20260508004538 55 0 0.0 0.0 0.00 1.22 0.00 97 1012.0
20260508003043 54 0 0.0 0.0 0.00 1.22 0.00 97 1012.3
20260508001543 54 0 0.0 0.0 0.00 1.22 0.00 97 1012.3
20260508000041 55 0 0.0 0.0 0.00 1.22 0.00 97 1012.5
20260507234542 54 0 0.0 0.0 0.00 1.22 0.00 97 1012.7
20260507233037 55 0 0.0 0.0 0.00 1.22 0.00 97 1012.5
20260507231546 55 0 0.0 0.0 0.00 1.22 0.00 97 1012.8
20260507230042 55 0 0.0 0.0 0.00 1.22 0.00 97 1012.9
20260507224540 55 0 0.0 0.0 0.00 1.22 0.00 97 1013.0
20260507223048 55 0 0.0 0.0 0.00 1.22 0.00 97 1012.8
20260507221544 55 0 0.0 0.0 0.00 1.22 0.00 97 1012.8
20260507220042 56 0 0.0 0.0 0.00 1.22 0.00 97 1012.5
20260507214545 56 0 0.0 0.0 0.00 1.22 1.22 97 1012.3
20260507213048 56 0 0.0 0.0 0.00 1.22 1.22 97 1012.5
20260507211542 56 0 0.0 0.0 0.00 1.22 1.22 97 1012.2
20260507210039 56 0 0.0 0.0 0.00 1.22 1.22 97 1012.2
20260507204538 57 0 0.0 0.0 0.00 1.22 1.22 97 1012.2
20260507203046 57 0 0.0 0.0 0.00 1.22 1.22 97 1012.1
20260507201543 57 0 0.0 0.0 0.00 1.22 1.22 97 1012.2
20260507200040 57 0 0.0 0.0 0.00 1.22 1.22 96 1012.1
20260507194548 57 0 0.0 0.0 0.00 1.22 1.22 96 1011.7
20260507193042 58 0 0.0 0.0 0.00 1.22 1.22 96 1011.4
20260507191542 58 0 0.0 0.0 0.00 1.22 1.22 96 1011.2
20260507190040 57 0 0.0 0.0 0.00 1.22 1.22 96 1011.0
20260507184538 58 0 0.0 0.0 0.02 1.22 1.22 96 1010.8
20260507183046 58 0 0.0 0.0 0.11 1.22 1.22 96 1010.6
20260507181541 59 0 0.0 0.0 0.51 1.22 1.22 96 1010.4
20260507180052 58 0 0.0 0.0 0.96 1.22 1.22 96 1010.3
20260507174542 58 0 0.0 2.6 1.18 1.19 1.19 96 1010.4
20260507173045 58 0 0.0 2.6 1.07 1.09 1.09 95 1010.6
20260507171548 59 0 0.0 0.9 0.66 0.68 0.68 95 1010.6
20260507170037 61 0 0.0 4.3 0.22 0.24 0.24 90 1010.4
20260507164548 65 0 0.0 0.0 0.00 0.01 0.01 78 1010.1
20260507163048 64 0 0.0 0.9 0.00 0.01 0.01 81 1009.8
20260507161550 64 0 0.0 0.0 0.00 0.01 0.01 82 1009.4
20260507160053 64 0 0.0 0.0 0.00 0.01 0.01 83 1009.4
20260507154538 64 0 0.0 0.9 0.00 0.01 0.01 84 1009.6
20260507153053 65 0 0.0 0.0 0.00 0.01 0.01 86 1009.7
20260507151544 64 0 0.0 0.0 0.00 0.00 0.00 84 1009.7
20260507150043 65 0 0.0 0.0 0.00 0.00 0.00 85 1009.7
20260507144539 65 0 0.0 0.0 0.00 0.00 0.00 84 1009.5
20260507143042 64 0 0.0 0.0 0.00 0.00 0.00 85 1009.4
20260507141543 64 0 0.0 0.0 0.00 0.00 0.00 86 1009.3
20260507140055 64 0 0.0 0.9 0.00 0.00 0.00 83 1009.3
20260507134542 65 0 0.0 6.1 0.00 0.00 0.00 82 1009.5
20260507133040 66 112 0.0 1.7 0.00 0.00 0.00 80 1009.6
20260507131539 67 0 0.0 3.5 0.00 0.00 0.00 77 1009.5
20260507130050 69 105 0.0 5.2 0.00 0.00 0.00 70 1009.7
20260507124555 70 0 0.0 8.7 0.00 0.00 0.00 67 1009.7
20260507123043 70 91 0.0 5.2 0.00 0.00 0.00 67 1009.8
20260507121540 70 0 0.0 1.7 0.00 0.00 0.00 66 1009.9
20260507120040 70 58 0.0 4.3 0.00 0.00 0.00 67 1010.1
20260507114556 70 0 0.0 4.3 0.00 0.00 0.00 68 1010.2
20260507113038 68 0 0.0 2.6 0.00 0.00 0.00 70 1010.1
20260507111538 69 0 0.0 3.5 0.00 0.00 0.00 70 1010.4
20260507110046 69 0 0.0 3.5 0.00 0.00 0.00 71 1010.4
20260507104549 69 0 0.0 7.8 0.00 0.00 0.00 70 1010.5
20260507103040 69 73 0.0 6.1 0.00 0.00 0.00 71 1010.5
20260507101538 69 0 0.0 4.3 0.00 0.00 0.00 71 1010.5